Time,TemperatureF,DewpointF,PressureIn,WindDirection,WindDirectionDegrees,WindSpeedMPH,WindSpeedGustMPH,Humidity,HourlyPrecipIn,Conditions,Clouds,dailyrainin,SoftwareType,DateUTC
2013-04-21 00:02:00,71.0,66.0,-100.00,NW,310,2.0,5.0,85,0.00,,,0.00,,2013-04-21 10:02:00,
2013-04-21 00:12:00,71.0,66.0,-100.00,NW,310,2.0,5.0,85,0.00,,,0.00,,2013-04-21 10:12:00,
2013-04-21 00:22:00,71.0,66.0,-100.00,NW,310,2.0,5.0,85,0.00,,,0.00,,2013-04-21 10:22:00,
2013-04-21 00:32:00,71.0,66.0,-100.00,NW,310,2.0,5.0,85,0.00,,,0.00,,2013-04-21 10:32:00,
2013-04-21 00:41:00,71.0,67.0,-100.00,NNW,348,3.0,4.0,87,0.00,,,-99.99,,2013-04-21 10:41:00,
2013-04-21 01:02:00,71.0,67.0,-100.00,NNW,348,3.0,4.0,87,0.00,,,-99.99,,2013-04-21 11:02:00,
2013-04-21 01:12:00,71.0,67.0,-100.00,NNW,348,3.0,4.0,87,0.00,,,-99.99,,2013-04-21 11:12:00,
2013-04-21 01:22:00,71.0,67.0,-100.00,NNW,348,3.0,4.0,87,0.00,,,-99.99,,2013-04-21 11:22:00,
2013-04-21 01:33:00,71.0,67.0,-100.00,NNW,348,3.0,4.0,87,0.00,,,-99.99,,2013-04-21 11:33:00,
2013-04-21 01:41:00,69.0,65.0,-100.00,NW,313,3.0,4.0,87,0.00,,,0.00,,2013-04-21 11:41:00,
2013-04-21 02:02:00,69.0,65.0,-100.00,NW,313,3.0,4.0,87,0.00,,,0.00,,2013-04-21 12:02:00,
2013-04-21 02:12:00,69.0,65.0,-100.00,NW,313,3.0,4.0,87,0.00,,,0.00,,2013-04-21 12:12:00,
2013-04-21 02:22:00,69.0,65.0,-100.00,NW,313,3.0,4.0,87,0.00,,,0.00,,2013-04-21 12:22:00,
2013-04-21 02:31:00,69.0,65.0,-100.00,NW,313,3.0,4.0,87,0.00,,,0.00,,2013-04-21 12:31:00,
2013-04-21 02:41:00,70.0,66.0,-100.00,NNW,342,3.0,4.0,88,0.00,,,0.00,,2013-04-21 12:41:00,
2013-04-21 03:01:00,70.0,66.0,-100.00,NNW,342,3.0,4.0,88,0.00,,,0.00,,2013-04-21 13:01:00,
2013-04-21 03:11:00,70.0,66.0,-100.00,NNW,342,3.0,4.0,88,0.00,,,0.00,,2013-04-21 13:11:00,
2013-04-21 03:21:00,70.0,66.0,-100.00,NNW,342,3.0,4.0,88,0.00,,,0.00,,2013-04-21 13:21:00,
2013-04-21 03:32:00,70.0,66.0,-100.00,NNW,342,3.0,4.0,88,0.00,,,0.00,,2013-04-21 13:32:00,
2013-04-21 03:41:00,68.0,64.0,-100.00,NW,315,2.0,4.0,87,0.00,,,0.00,,2013-04-21 13:41:00,
2013-04-21 04:01:00,68.0,64.0,-100.00,NW,315,2.0,4.0,87,0.00,,,0.00,,2013-04-21 14:01:00,
2013-04-21 04:11:00,68.0,64.0,-100.00,NW,315,2.0,4.0,87,0.00,,,0.00,,2013-04-21 14:11:00,
2013-04-21 04:21:00,68.0,64.0,-100.00,NW,315,2.0,4.0,87,0.00,,,0.00,,2013-04-21 14:21:00,
2013-04-21 04:31:00,68.0,64.0,-100.00,NW,315,2.0,4.0,87,0.00,,,0.00,,2013-04-21 14:31:00,
2013-04-21 04:41:00,68.0,65.0,-100.00,North,358,1.0,3.0,90,0.00,,,0.00,,2013-04-21 14:41:00,
2013-04-21 05:02:00,68.0,65.0,-100.00,North,358,1.0,3.0,90,0.00,,,0.00,,2013-04-21 15:02:00,
2013-04-21 05:11:00,68.0,65.0,-100.00,North,358,1.0,3.0,90,0.00,,,0.00,,2013-04-21 15:11:00,
2013-04-21 05:22:00,68.0,65.0,-100.00,North,358,1.0,3.0,90,0.00,,,0.00,,2013-04-21 15:22:00,
2013-04-21 05:33:00,68.0,65.0,-100.00,North,358,1.0,3.0,90,0.00,,,0.00,,2013-04-21 15:33:00,
2013-04-21 05:41:00,69.0,66.0,-100.00,NNW,348,3.0,5.0,89,0.00,,,0.00,,2013-04-21 15:41:00,
2013-04-21 06:03:00,69.0,66.0,-100.00,NNW,348,3.0,5.0,89,0.00,,,0.00,,2013-04-21 16:03:00,
2013-04-21 06:12:00,69.0,66.0,-100.00,NNW,348,3.0,5.0,89,0.00,,,0.00,,2013-04-21 16:12:00,
2013-04-21 06:22:00,69.0,66.0,-100.00,NNW,348,3.0,5.0,89,0.00,,,0.00,,2013-04-21 16:22:00,
2013-04-21 06:32:00,69.0,66.0,-100.00,NNW,348,3.0,5.0,89,0.00,,,0.00,,2013-04-21 16:32:00,
2013-04-21 06:41:00,70.0,67.0,-100.00,North,353,2.0,5.0,90,0.00,,,0.00,,2013-04-21 16:41:00,
2013-04-21 07:02:00,70.0,67.0,-100.00,North,353,2.0,5.0,90,0.00,,,0.00,,2013-04-21 17:02:00,
2013-04-21 07:12:00,70.0,67.0,-100.00,North,353,2.0,5.0,90,0.00,,,0.00,,2013-04-21 17:12:00,
2013-04-21 07:22:00,70.0,67.0,-100.00,North,353,2.0,5.0,90,0.00,,,0.00,,2013-04-21 17:22:00,
2013-04-21 07:32:00,70.0,67.0,-100.00,North,353,2.0,5.0,90,0.00,,,0.00,,2013-04-21 17:32:00,
2013-04-21 07:41:00,73.0,69.0,-100.00,NNE,26,3.0,5.0,87,0.00,,,0.00,,2013-04-21 17:41:00,
2013-04-21 08:02:00,73.0,69.0,-100.00,NNE,26,3.0,5.0,87,0.00,,,0.00,,2013-04-21 18:02:00,
2013-04-21 08:11:00,73.0,69.0,-100.00,NNE,26,3.0,5.0,87,0.00,,,0.00,,2013-04-21 18:11:00,
2013-04-21 08:22:00,73.0,69.0,-100.00,NNE,26,3.0,5.0,87,0.00,,,0.00,,2013-04-21 18:22:00,
2013-04-21 08:32:00,73.0,69.0,-100.00,NNE,26,3.0,5.0,87,0.00,,,0.00,,2013-04-21 18:32:00,
2013-04-21 08:41:00,76.0,70.0,-100.00,NNE,26,2.0,4.0,83,0.00,,,0.00,,2013-04-21 18:41:00,
2013-04-21 09:02:00,76.0,70.0,-100.00,NNE,26,2.0,4.0,83,0.00,,,0.00,,2013-04-21 19:02:00,
2013-04-21 09:11:00,76.0,70.0,-100.00,NNE,26,2.0,4.0,83,0.00,,,0.00,,2013-04-21 19:11:00,
2013-04-21 09:21:00,76.0,70.0,-100.00,NNE,26,2.0,4.0,83,0.00,,,0.00,,2013-04-21 19:21:00,
2013-04-21 09:32:00,76.0,70.0,-100.00,NNE,26,2.0,4.0,83,0.00,,,0.00,,2013-04-21 19:32:00,
2013-04-21 09:41:00,79.0,70.0,-100.00,SSW,204,5.0,8.0,75,0.00,,,0.00,,2013-04-21 19:41:00,
2013-04-21 10:01:00,79.0,70.0,-100.00,SSW,204,5.0,8.0,75,0.00,,,0.00,,2013-04-21 20:01:00,
2013-04-21 10:11:00,79.0,70.0,-100.00,SSW,204,5.0,8.0,75,0.00,,,0.00,,2013-04-21 20:11:00,
2013-04-21 10:22:00,79.0,70.0,-100.00,SSW,204,5.0,8.0,75,0.00,,,0.00,,2013-04-21 20:22:00,
2013-04-21 10:31:00,79.0,70.0,-100.00,SSW,204,5.0,8.0,75,0.00,,,0.00,,2013-04-21 20:31:00,
2013-04-21 10:41:00,81.0,69.0,-100.00,SSW,197,6.0,12.0,67,0.00,,,0.00,,2013-04-21 20:41:00,
2013-04-21 11:02:00,81.0,69.0,-100.00,SSW,197,6.0,12.0,67,0.00,,,0.00,,2013-04-21 21:02:00,
2013-04-21 11:12:00,81.0,69.0,-100.00,SSW,197,6.0,12.0,67,0.00,,,0.00,,2013-04-21 21:12:00,
2013-04-21 11:21:00,81.0,69.0,-100.00,SSW,197,6.0,12.0,67,0.00,,,0.00,,2013-04-21 21:21:00,
2013-04-21 11:33:00,81.0,69.0,-100.00,SSW,197,6.0,12.0,67,0.00,,,0.00,,2013-04-21 21:33:00,
2013-04-21 11:41:00,81.0,68.0,-100.00,South,170,6.0,14.0,64,0.00,,,0.00,,2013-04-21 21:41:00,
2013-04-21 12:02:00,81.0,68.0,-100.00,South,170,6.0,14.0,64,0.00,,,0.00,,2013-04-21 22:02:00,
2013-04-21 12:12:00,81.0,68.0,-100.00,South,170,6.0,14.0,64,0.00,,,0.00,,2013-04-21 22:12:00,
2013-04-21 12:22:00,81.0,68.0,-100.00,South,170,6.0,14.0,64,0.00,,,0.00,,2013-04-21 22:22:00,
2013-04-21 12:33:00,81.0,68.0,-100.00,South,170,6.0,14.0,64,0.00,,,0.00,,2013-04-21 22:33:00,
2013-04-21 12:41:00,81.0,68.0,-100.00,SSW,202,6.0,17.0,65,0.00,,,0.00,,2013-04-21 22:41:00,
2013-04-21 13:02:00,81.0,68.0,-100.00,SSW,202,6.0,17.0,65,0.00,,,0.00,,2013-04-21 23:02:00,
2013-04-21 13:12:00,81.0,68.0,-100.00,SSW,202,6.0,17.0,65,0.00,,,0.00,,2013-04-21 23:12:00,
2013-04-21 13:22:00,81.0,68.0,-100.00,SSW,202,6.0,17.0,65,0.00,,,0.00,,2013-04-21 23:22:00,
2013-04-21 13:32:00,81.0,68.0,-100.00,SSW,202,6.0,17.0,65,0.00,,,0.00,,2013-04-21 23:32:00,
2013-04-21 13:41:00,82.0,70.0,-100.00,SSW,201,5.0,13.0,67,0.00,,,0.00,,2013-04-21 23:41:00,
2013-04-21 14:01:00,82.0,70.0,-100.00,SSW,201,5.0,13.0,67,0.00,,,0.00,,2013-04-22 00:01:00,
2013-04-21 14:11:00,82.0,70.0,-100.00,SSW,201,5.0,13.0,67,0.00,,,0.00,,2013-04-22 00:11:00,
2013-04-21 14:21:00,82.0,70.0,-100.00,SSW,201,5.0,13.0,67,0.00,,,0.00,,2013-04-22 00:21:00,
2013-04-21 14:31:00,82.0,70.0,-100.00,SSW,201,5.0,13.0,67,0.00,,,0.00,,2013-04-22 00:31:00,
2013-04-21 14:41:00,78.0,70.0,-100.00,South,187,7.0,13.0,76,0.00,,,0.00,,2013-04-22 00:41:00,
2013-04-21 15:01:00,78.0,70.0,-100.00,South,187,7.0,13.0,76,0.00,,,0.00,,2013-04-22 01:01:00,
2013-04-21 15:12:00,78.0,70.0,-100.00,South,187,7.0,13.0,76,0.00,,,0.00,,2013-04-22 01:12:00,
2013-04-21 15:21:00,78.0,70.0,-100.00,South,187,7.0,13.0,76,0.00,,,0.00,,2013-04-22 01:21:00,
2013-04-21 15:32:00,78.0,70.0,-100.00,South,187,7.0,13.0,76,0.00,,,0.00,,2013-04-22 01:32:00,
2013-04-21 15:41:00,74.0,70.0,-100.00,WSW,238,3.0,13.0,86,0.02,,,0.02,,2013-04-22 01:41:00,
2013-04-21 16:01:00,74.0,70.0,-100.00,WSW,238,3.0,13.0,86,0.02,,,0.02,,2013-04-22 02:01:00,
2013-04-21 16:11:00,74.0,70.0,-100.00,WSW,238,3.0,13.0,86,0.02,,,0.02,,2013-04-22 02:11:00,
2013-04-21 16:21:00,74.0,70.0,-100.00,WSW,238,3.0,13.0,86,0.02,,,0.02,,2013-04-22 02:21:00,
2013-04-21 16:31:00,74.0,70.0,-100.00,WSW,238,3.0,13.0,86,0.02,,,0.02,,2013-04-22 02:31:00,
2013-04-21 16:41:00,76.0,71.0,-100.00,South,185,3.0,5.0,84,0.00,,,0.02,,2013-04-22 02:41:00,
2013-04-21 17:02:00,76.0,71.0,-100.00,South,185,3.0,5.0,84,0.00,,,0.02,,2013-04-22 03:02:00,
2013-04-21 17:11:00,76.0,71.0,-100.00,South,185,3.0,5.0,84,0.00,,,0.02,,2013-04-22 03:11:00,
2013-04-21 17:22:00,76.0,71.0,-100.00,South,185,3.0,5.0,84,0.00,,,0.02,,2013-04-22 03:22:00,
2013-04-21 17:33:00,76.0,71.0,-100.00,South,185,3.0,5.0,84,0.00,,,0.02,,2013-04-22 03:33:00,
2013-04-21 17:41:00,75.0,70.0,-100.00,SSW,204,3.0,5.0,84,0.00,,,0.02,,2013-04-22 03:41:00,
2013-04-21 18:02:00,75.0,70.0,-100.00,SSW,204,3.0,5.0,84,0.00,,,0.02,,2013-04-22 04:02:00,
2013-04-21 18:12:00,75.0,70.0,-100.00,SSW,204,3.0,5.0,84,0.00,,,0.02,,2013-04-22 04:12:00,
2013-04-21 18:23:00,75.0,70.0,-100.00,SSW,204,3.0,5.0,84,0.00,,,0.02,,2013-04-22 04:23:00,
2013-04-21 18:32:00,75.0,70.0,-100.00,SSW,204,3.0,5.0,84,0.00,,,0.02,,2013-04-22 04:32:00,
2013-04-21 18:41:00,75.0,70.0,-100.00,SSE,156,3.0,10.0,84,0.00,,,0.02,,2013-04-22 04:41:00,
2013-04-21 19:02:00,75.0,70.0,-100.00,SSE,156,3.0,10.0,84,0.00,,,0.02,,2013-04-22 05:02:00,
2013-04-21 19:12:00,75.0,70.0,-100.00,SSE,156,3.0,10.0,84,0.00,,,0.02,,2013-04-22 05:12:00,
2013-04-21 19:22:00,75.0,70.0,-100.00,SSE,156,3.0,10.0,84,0.00,,,0.02,,2013-04-22 05:22:00,
2013-04-21 19:32:00,75.0,70.0,-100.00,SSE,156,3.0,10.0,84,0.00,,,0.02,,2013-04-22 05:32:00,
2013-04-21 19:41:00,74.0,69.0,-100.00,NW,311,3.0,5.0,84,0.00,,,0.02,,2013-04-22 05:41:00,
2013-04-21 20:02:00,74.0,69.0,-100.00,NW,311,3.0,5.0,84,0.00,,,0.02,,2013-04-22 06:02:00,
2013-04-21 20:12:00,74.0,69.0,-100.00,NW,311,3.0,5.0,84,0.00,,,0.02,,2013-04-22 06:12:00,
2013-04-21 20:21:00,74.0,69.0,-100.00,NW,311,3.0,5.0,84,0.00,,,0.02,,2013-04-22 06:21:00,
2013-04-21 20:32:00,74.0,69.0,-100.00,NW,311,3.0,5.0,84,0.00,,,0.02,,2013-04-22 06:32:00,
2013-04-21 20:41:00,74.0,69.0,-100.00,NW,321,2.0,4.0,84,0.00,,,0.02,,2013-04-22 06:41:00,
2013-04-21 21:01:00,74.0,69.0,-100.00,NW,321,2.0,4.0,84,0.00,,,0.02,,2013-04-22 07:01:00,
2013-04-21 21:11:00,74.0,69.0,-100.00,NW,321,2.0,4.0,84,0.00,,,0.02,,2013-04-22 07:11:00,
2013-04-21 21:21:00,74.0,69.0,-100.00,NW,321,2.0,4.0,84,0.00,,,0.02,,2013-04-22 07:21:00,
2013-04-21 21:32:00,74.0,69.0,-100.00,NW,321,2.0,4.0,84,0.00,,,0.02,,2013-04-22 07:32:00,
2013-04-21 21:41:00,74.0,69.0,-100.00,North,350,3.0,5.0,85,0.00,,,0.02,,2013-04-22 07:41:00,
2013-04-21 22:01:00,74.0,69.0,-100.00,North,350,3.0,5.0,85,0.00,,,0.02,,2013-04-22 08:01:00,
2013-04-21 22:11:00,74.0,69.0,-100.00,North,350,3.0,5.0,85,0.00,,,0.02,,2013-04-22 08:11:00,
2013-04-21 22:22:00,74.0,69.0,-100.00,North,350,3.0,5.0,85,0.00,,,0.02,,2013-04-22 08:22:00,
2013-04-21 22:32:00,74.0,69.0,-100.00,North,350,3.0,5.0,85,0.00,,,0.02,,2013-04-22 08:32:00,
2013-04-21 22:41:00,74.0,70.0,-100.00,East,84,3.0,6.0,86,0.00,,,0.02,,2013-04-22 08:41:00,
2013-04-21 23:01:00,74.0,70.0,-100.00,East,84,3.0,6.0,86,0.00,,,0.02,,2013-04-22 09:01:00,
2013-04-21 23:11:00,74.0,70.0,-100.00,East,84,3.0,6.0,86,0.00,,,0.02,,2013-04-22 09:11:00,
2013-04-21 23:21:00,74.0,70.0,-100.00,East,84,3.0,6.0,86,0.00,,,0.02,,2013-04-22 09:21:00,
2013-04-21 23:33:00,74.0,70.0,-100.00,East,84,3.0,6.0,86,0.00,,,0.02,,2013-04-22 09:33:00,
2013-04-21 23:41:00,71.0,67.0,-100.00,NNW,338,3.0,7.0,88,0.39,,,0.41,,2013-04-22 09:41:00,